Location: Mascot Post Office (historical)
(40.2645°N, 99.5462°W)
Time: 02:44:42
(UTC+00:00)

Cosmos 1892 - Pass Details

Date: 14 July 2020
Orbit: 505 x 524 km, 82.5° (Epoch: 14 August)

Event Time Altitude Azimuth Distance (km) Brightness Sun altitude
Exits shadow 04:31:18 19° 228° (SW) 1,249 4.5 -20.8°
Maximum altitude 04:33:25 34° 282° (WNW) 855 4.1 -21.0°
Drops below altitude 10° 04:36:56 10° 349° (N) 1,747 6.4 -21.4°
Sets 04:39:13 0° 359° (N) 2,642 7.3 -21.6°
